When you browse on this site, cookies collect data to enhance your experience and personalize the content and advertising you see.
Visit our Privacy Policy to learn more. By continuing to use the site, you agree to this use of cookies and data.
  • In Hungary
  • List of Countries
  • For 7 days
  • Water Temperature
  • Weather Map
  • News
  • Weather Widgets
  • user-avatar
    Login

    Hourly Weather Yablunya

    Today, 10 December, Tuesday

    Time Temperature Precipitation Wind Pressure Humidity
    00:00 +6°C° 0 mm 4 mps 757 mmHg 88%
    01:00 +6°C° 0 mm 4 mps 757 mmHg 89%
    02:00 +6°C° 0 mm 4 mps 757 mmHg 90%
    03:00 +6°C° 0 mm 4 mps 757 mmHg 90%
    04:00 +6°C° 0 mm 4 mps 757 mmHg 89%
    05:00 +6°C° 0 mm 4 mps 758 mmHg 89%
    06:00 +6°C° 0 mm 4 mps 758 mmHg 89%
    07:00 +6°C° 0 mm 4 mps 758 mmHg 89%
    08:00 +6°C° 0 mm 4 mps 758 mmHg 89%
    09:00 +7°C° 0.1 mm 4 mps 758 mmHg 85%
    10:00 +8°C° 0.1 mm 5 mps 758 mmHg 80%
    11:00 +9°C° 0.1 mm 5 mps 759 mmHg 75%
    12:00 +9°C° 0 mm 5 mps 758 mmHg 75%
    13:00 +10°C° 0 mm 4 mps 758 mmHg 74%
    14:00 +10°C° 0 mm 4 mps 758 mmHg 73%
    15:00 +8°C° 0 mm 4 mps 758 mmHg 78%
    16:00 +8°C° 0 mm 3 mps 759 mmHg 83%
    17:00 +7°C° 0 mm 3 mps 759 mmHg 89%
    18:00 +7°C° 0 mm 3 mps 759 mmHg 89%
    19:00 +7°C° 0 mm 3 mps 759 mmHg 89%
    20:00 +7°C° 0 mm 3 mps 760 mmHg 90%
    21:00 +6°C° 0 mm 2 mps 760 mmHg 90%
    22:00 +6°C° 0 mm 2 mps 760 mmHg 90%
    23:00 +6°C° 0 mm 2 mps 760 mmHg 90%

    Tomorrow, 11 December, Wednesday

    Time Temperature Precipitation Wind Pressure Humidity
    00:00 +6°C° 0 mm 2 mps 760 mmHg 91%
    01:00 +5°C° 0 mm 2 mps 760 mmHg 91%
    02:00 +5°C° 0 mm 2 mps 761 mmHg 91%
    03:00 +5°C° 0 mm 2 mps 760 mmHg 91%
    04:00 +5°C° 0 mm 2 mps 760 mmHg 91%
    05:00 +5°C° 0 mm 2 mps 760 mmHg 91%
    06:00 +4°C° 0 mm 2 mps 760 mmHg 91%
    07:00 +4°C° 0 mm 2 mps 761 mmHg 91%
    08:00 +4°C° 0 mm 2 mps 761 mmHg 91%
    09:00 +5°C° 0 mm 2 mps 761 mmHg 85%
    10:00 +5°C° 0 mm 3 mps 761 mmHg 79%
    11:00 +8°C° 0 mm 3 mps 761 mmHg 73%
    12:00 +8°C° 0 mm 3 mps 761 mmHg 70%
    13:00 +9°C° 0 mm 3 mps 761 mmHg 67%
    14:00 +9°C° 0 mm 3 mps 760 mmHg 63%
    15:00 +8°C° 0 mm 3 mps 760 mmHg 68%
    16:00 +7°C° 0 mm 3 mps 760 mmHg 73%
    17:00 +5°C° 0 mm 3 mps 760 mmHg 78%
    18:00 +4°C° 0 mm 3 mps 760 mmHg 80%
    19:00 +4°C° 0 mm 3 mps 760 mmHg 82%
    20:00 +3°C° 0 mm 3 mps 760 mmHg 84%
    21:00 +3°C° 0 mm 3 mps 760 mmHg 86%
    22:00 +1°C° 0 mm 4 mps 760 mmHg 87%
    23:00 +1°C° 0 mm 4 mps 760 mmHg 89%

    Day after tomorrow, 12 December, Thursday

    Time Temperature Precipitation Wind Pressure Humidity
    00:00 +1°C° 0 mm 4 mps 760 mmHg 91%
    01:00 +1°C° 0 mm 4 mps 759 mmHg 92%
    02:00 +1°C° 0 mm 4 mps 759 mmHg 93%
    03:00 0°C° 0 mm 4 mps 759 mmHg 93%
    04:00 0°C° 0 mm 4 mps 758 mmHg 93%
    05:00 0°C° 0 mm 5 mps 758 mmHg 93%
    06:00 0°C° 0 mm 5 mps 758 mmHg 93%
    07:00 0°C° 0 mm 5 mps 758 mmHg 93%
    08:00 0°C° 0 mm 5 mps 759 mmHg 93%
    09:00 +2°C° 0 mm 5 mps 758 mmHg 86%
    10:00 +3°C° 0 mm 6 mps 758 mmHg 79%
    11:00 +5°C° 0 mm 7 mps 758 mmHg 73%
    12:00 +5°C° 0 mm 6 mps 758 mmHg 70%
    13:00 +7°C° 0 mm 6 mps 757 mmHg 67%
    14:00 +7°C° 0 mm 6 mps 757 mmHg 64%
    15:00 +5°C° 0 mm 6 mps 757 mmHg 67%
    16:00 +4°C° 0 mm 6 mps 756 mmHg 70%
    17:00 +5°C° 0 mm 5 mps 756 mmHg 74%
    18:00 +3°C° 0 mm 5 mps 756 mmHg 76%
    19:00 +2°C° 0 mm 5 mps 756 mmHg 77%
    20:00 +2°C° 0 mm 5 mps 756 mmHg 79%
    21:00 +2°C° 0 mm 5 mps 756 mmHg 81%
    22:00 +1°C° 0 mm 5 mps 756 mmHg 83%
    23:00 +1°C° 0 mm 5 mps 755 mmHg 85%

    13 December, Friday

    Time Temperature Precipitation Wind Pressure Humidity
    00:00 0°C° 0 mm 5 mps 755 mmHg 87%
    01:00 0°C° 0 mm 5 mps 755 mmHg 89%
    02:00 0°C° 0 mm 5 mps 754 mmHg 91%
    03:00 -1°C° 0 mm 6 mps 754 mmHg 89%
    04:00 +1°C° 0 mm 6 mps 754 mmHg 88%
    05:00 +1°C° 0 mm 6 mps 754 mmHg 86%
    06:00 +1°C° 0 mm 6 mps 754 mmHg 86%
    07:00 +1°C° 0 mm 6 mps 754 mmHg 86%
    08:00 +1°C° 0 mm 6 mps 754 mmHg 85%
    09:00 +1°C° 0 mm 6 mps 754 mmHg 83%
    10:00 +1°C° 0 mm 6 mps 753 mmHg 80%
    11:00 +2°C° 0 mm 6 mps 753 mmHg 77%
    12:00 +2°C° 0 mm 6 mps 753 mmHg 75%
    13:00 +3°C° 0 mm 6 mps 753 mmHg 73%
    14:00 +3°C° 0 mm 5 mps 753 mmHg 71%
    15:00 +3°C° 0 mm 5 mps 753 mmHg 75%
    16:00 +2°C° 0 mm 5 mps 753 mmHg 78%
    17:00 +2°C° 0 mm 5 mps 752 mmHg 81%
    18:00 +2°C° 0 mm 5 mps 753 mmHg 82%
    19:00 +1°C° 0 mm 5 mps 753 mmHg 83%
    20:00 +1°C° 0 mm 6 mps 753 mmHg 84%
    21:00 +1°C° 0 mm 5 mps 753 mmHg 86%
    22:00 +1°C° 0 mm 5 mps 753 mmHg 87%
    23:00 +1°C° 0 mm 5 mps 752 mmHg 89%

    14 December, Saturday

    Time Temperature Precipitation Wind Pressure Humidity
    00:00 +1°C° 0 mm 5 mps 752 mmHg 90%
    01:00 +1°C° 0 mm 4 mps 752 mmHg 91%
    02:00 +1°C° 0 mm 4 mps 752 mmHg 92%
    03:00 +1°C° 0 mm 4 mps 752 mmHg 92%
    04:00 +1°C° 0 mm 4 mps 752 mmHg 93%
    05:00 +1°C° 0 mm 4 mps 752 mmHg 93%
    06:00 +3°C° 0 mm 4 mps 752 mmHg 93%
    07:00 +2°C° 0 mm 5 mps 753 mmHg 93%
    08:00 +2°C° 0 mm 5 mps 753 mmHg 93%
    09:00 +3°C° 0 mm 5 mps 753 mmHg 89%
    10:00 +5°C° 0 mm 5 mps 753 mmHg 86%
    11:00 +6°C° 0 mm 5 mps 754 mmHg 82%
    12:00 +7°C° 0 mm 5 mps 754 mmHg 81%
    13:00 +7°C° 0 mm 5 mps 753 mmHg 80%
    14:00 +8°C° 0 mm 5 mps 753 mmHg 79%
    15:00 +8°C° 0 mm 5 mps 754 mmHg 83%
    16:00 +7°C° 0 mm 5 mps 754 mmHg 87%
    17:00 +7°C° 0 mm 5 mps 754 mmHg 90%
    18:00 +7°C° 0 mm 5 mps 755 mmHg 91%
    19:00 +7°C° 0 mm 5 mps 755 mmHg 92%
    20:00 +7°C° 0 mm 5 mps 755 mmHg 92%
    21:00 +7°C° 0 mm 4 mps 756 mmHg 92%
    22:00 +7°C° 0 mm 4 mps 756 mmHg 92%
    23:00 +7°C° 0 mm 4 mps 756 mmHg 92%

    15 December, Sunday

    Time Temperature Precipitation Wind Pressure Humidity
    00:00 +7°C° 0 mm 4 mps 756 mmHg 92%
    01:00 +7°C° 0 mm 4 mps 756 mmHg 92%
    02:00 +7°C° 0 mm 4 mps 757 mmHg 92%
    03:00 +7°C° 0 mm 4 mps 757 mmHg 93%
    04:00 +8°C° 0 mm 3 mps 757 mmHg 93%
    05:00 +8°C° 0 mm 3 mps 757 mmHg 94%
    06:00 +8°C° 0.1 mm 2 mps 758 mmHg 93%
    07:00 +8°C° 0.1 mm 2 mps 758 mmHg 93%
    08:00 +8°C° 0.1 mm 2 mps 758 mmHg 93%
    09:00 +9°C° 0.1 mm 2 mps 759 mmHg 90%
    10:00 +9°C° 0.1 mm 2 mps 759 mmHg 86%
    11:00 +10°C° 0.1 mm 2 mps 760 mmHg 83%
    12:00 +12°C° 0 mm 2 mps 760 mmHg 76%
    13:00 +12°C° 0 mm 2 mps 760 mmHg 69%
    14:00 +13°C° 0 mm 2 mps 760 mmHg 63%
    15:00 +12°C° 0 mm 2 mps 760 mmHg 66%
    16:00 +10°C° 0 mm 2 mps 761 mmHg 70%
    17:00 +9°C° 0 mm 1 mps 762 mmHg 73%
    18:00 +9°C° 0 mm 1 mps 762 mmHg 74%
    19:00 +9°C° 0 mm 1 mps 763 mmHg 74%
    20:00 +8°C° 0 mm 1 mps 763 mmHg 75%
    21:00 +8°C° 0 mm 1 mps 763 mmHg 74%
    22:00 +8°C° 0 mm 1 mps 764 mmHg 74%
    23:00 +7°C° 0 mm 0 mps 764 mmHg 74%
    Show more